Terminal Aerodrome Forecast
Issued by NWS

Home | Current Version | Previous Version | Text Only | Print | Product List | Glossary On
Versions: 1 2 3 4 5 6 7 8 9 10 11 12 13 14 15 16 17 18 19 20
711
FTUS44 KOHX 202320
TAFCKV
TAF
KCKV 202320Z 2100/2124 VRB03KT P6SM SCT250
     FM210600 00000KT 4SM BR BCFG SCT250
     FM211200 22004KT P6SM SKC=

USA.gov is the U.S. government's official web portal to all federal, state and local government web resources and services.